Location: Gajan
(43.0218°N, 1.1244°E)
Time: 15:10:29
(UTC+00:00)

Cosmos 2026 Rocket - Pass Details

Date: 22 April 2021
Orbit: 939 x 1001 km, 82.9° (Epoch: 12 May)

Event Time Altitude Azimuth Distance (km) Brightness Sun altitude
Rises 19:31:39 0° 353° (N) 3,614 7.5 -8.5°
Reaches altitude 10° 19:34:09 10° 354° (N) 2,669 6.8 -8.9°
Maximum altitude 19:40:15 81° 82° (E) 966 3.9 -9.9°
Drops below altitude 10° 19:46:23 10° 170° (S) 2,683 5.9 -10.9°
Sets 19:48:53 0° 171° (S) 3,634 6.6 -11.3°
